Volver al catálogo

STARLINK-4480

ActivoComunicacionesVLEO
NORAD 53416·PAYLOAD·🇺🇸 United States

Lanzado Aug 10, 2022 desde Cape Canaveral Space Force Station

Loading…

Próximos Pases (próximas 24 horas)

TLE

ActualizadoSource: CelesTrak SupGP

Época: Sep 14, 2026, 22:21 UTC

1 53416C 22097AE  26257.93173611  .00192360  00000+0  87082-2 0  2576
2 53416  53.1609 343.0533 0001126  93.8391  25.3103 15.20273602    12

Sigue STARLINK-4480 en tiempo real con AllMySat

Download on the App Store